Location: Wheeling
(40.0640°N, 80.7210°W)
Time: 14:35:46
(UTC-05:00)

ITAMSAT 1 - Pass Details

Date: 01 November 2021
Orbit: 784 x 796 km, 98.9° (Epoch: 01 December)

Event Time Altitude Azimuth Distance (km) Brightness Sun altitude
Rises 07:14:32 0° 37° (NE) 3,302 11.2 -7.8°
Reaches altitude 10° 07:18:42 10° 70° (ENE) 2,367 11.1 -7.0°
Maximum altitude 07:20:26 12° 90° (E) 2,255 11.6 -6.7°
Drops below altitude 10° 07:22:11 10° 109° (ESE) 2,363 12.0 -6.4°
Sets 07:26:18 0° 142° (SE) 3,285 11.8 -5.6°
